Location: ??????
(31.2056°N, 45.3906°E)
Time: 14:46:44
(UTC+00:00)

Cosmos 1437 - Pass Details

Date: 09 April 2020
Orbit: 373 x 377 km, 81.2° (Epoch: 26 May)

Event Time Altitude Azimuth Distance (km) Brightness Sun altitude
Rises 16:04:03 0° 359° (N) 2,243 6.7 -9.4°
Reaches altitude 10° 16:06:06 10° 6° (N) 1,386 5.5 -9.8°
Maximum altitude 16:09:00 45° 80° (E) 526 2.8 -10.4°
Drops below altitude 10° 16:11:52 10° 155° (SSE) 1,373 5.0 -11.0°
Enters shadow 16:12:18 - 157° (SSE) 1,553 5.3 -11.1°
